Wind_Speed
18 18 19 19 19 19 18 18 18 18 19 18 18 18 18 18 19 19 19 18 19 19 19 20 20 20 20 19 19 19 20 19 19 19 20 20 19 19 19 18 18 18 18
19 19 19 20 19 19 19 19 18 18 18 18 18 19 19 19 19 19 19 19 19 18 19 20 20 21 21 21 21 20 20 21 20 20 20 20 20 20 20 20 20 19 19
19 19 19 20 20 20 20 19 19 18 19 19 19 19 20 20 20 21 20 20 20 19 19 20 21 21 21 21 22 22 21 21 21 21 21 21 21 21 21 21 20 20 19
20 20 20 20 20 20 20 20 19 19 20 20 19 19 19 20 20 21 22 21 21 21 21 21 21 22 22 22 23 23 23 22 22 22 22 22 22 22 22 21 20 20 20
21 21 21 21 21 20 20 20 20 20 20 19 20 20 19 20 20 21 22 22 22 22 22 22 22 22 23 22 23 23 23 22 22 22 22 22 23 23 22 22 21 21 20
22 22 22 21 21 21 20 20 20 21 21 22 22 21 21 20 20 21 22 22 23 23 22 22 23 23 23 23 23 23 23 23 23 23 23 23 23 23 23 23 22 22 22
23 22 22 22 21 22 22 21 21 21 21 22 23 23 22 22 22 22 23 23 23 23 23 24 24 24 23 23 23 24 24 24 23 23 23 23 23 23 23 23 23 23 23
24 23 23 23 22 22 22 22 22 22 22 23 23 23 23 23 23 23 24 24 24 24 24 24 25 25 25 25 25 25 25 25 24 24 24 24 25 24 24 24 24 24 23
25 25 24 24 23 23 23 23 23 23 23 23 23 23 23 23 23 24 24 24 25 25 25 25 25 25 25 26 26 26 26 25 25 25 25 26 26 25 25 25 25 25 25
25 25 25 25 25 24 24 24 24 25 25 24 24 24 23 23 23 24 25 25 26 26 26 25 25 26 26 26 26 26 26 26 26 26 26 26 26 26 25 25 25 25 26
26 26 26 25 25 25 25 25 25 25 26 26 25 24 24 24 24 24 25 25 25 26 25 26 26 27 27 27 27 27 27 27 27 27 27 27 27 27 27 26 25 25 26
27 27 27 27 27 27 27 27 27 27 28 28 27 26 25 25 25 25 25 26 26 25 25 26 26 27 27 27 27 27 27 28 27 27 27 27 27 27 27 28 27 27 27
28 29 29 28 28 28 28 28 28 28 28 28 27 26 26 26 25 26 26 27 26 26 25 26 26 27 27 28 28 28 29 28 28 28 28 28 28 28 28 29 29 29 28
30 29 29 29 29 29 29 28 27 26 26 27 27 26 26 27 26 27 27 27 27 27 27 26 27 27 28 28 29 29 30 30 30 29 29 29 30 30 30 30 30 30 30
29 29 28 29 30 29 28 27 27 26 26 26 26 26 27 27 27 28 28 28 28 28 28 28 28 28 28 29 30 30 31 31 31 31 30 30 30 31 31 31 30 30 30
28 28 27 27 27 27 27 27 26 26 26 26 26 27 27 27 28 28 27 28 28 29 29 28 28 28 28 29 29 30 31 31 32 32 31 31 32 32 32 32 32 31 31
27 26 26 27 27 27 27 27 27 27 27 27 27 27 28 28 28 28 28 28 28 29 29 29 29 28 29 30 30 30 31 32 32 33 33 32 32 32 33 33 33 32 32
26 26 26 26 27 27 27 27 27 28 27 28 28 28 28 28 28 28 28 28 28 29 29 30 30 30 29 30 30 30 31 32 33 33 33 34 33 33 33 33 33 33 33
27 27 27 27 27 26 27 27 28 28 28 28 29 29 28 28 28 28 28 28 28 28 28 29 29 29 29 29 29 29 30 31 32 33 33 34 34 34 34 34 34 34 33
27 27 27 27 27 27 27 27 27 27 28 27 28 28 28 28 28 28 28 27 27 27 27 28 28 29 29 30 30 30 30 31 32 33 33 33 34 34 35 35 34 34 34
27 27 27 27 27 27 27 27 27 27 27 27 27 27 27 27 27 27 28 27 27 27 27 28 28 28 29 29 30 30 31 30 31 32 33 34 34 34 35 35 36 36 35
27 27 27 27 27 28 28 28 28 27 27 26 26 26 27 27 27 27 27 27 28 28 28 28 28 29 30 30 30 31 31 31 31 32 33 34 34 34 35 35 36 36 36
26 26 26 27 27 28 28 28 27 27 27 26 26 26 26 27 27 27 27 27 27 28 28 28 28 28 29 29 30 30 31 31 31 32 32 33 34 34 35 35 36 36 36
25 26 27 27 27 27 27 27 27 27 26 26 26 26 26 26 26 27 26 27 27 28 28 28 29 29 29 29 30 30 30 30 31 31 32 33 34 35 35 36 36 37 37
26 27 27 27 27 27 27 27 27 26 26 26 26 25 25 26 26 26 26 26 26 27 27 28 28 29 29 30 30 31 31 31 31 31 31 32 33 34 35 36 36 37 37
26 25 26 26 27 27 26 26 26 26 25 25 25 25 25 25 25 25 25 26 26 26 26 27 27 28 29 30 30 30 30 30 30 31 31 31 32 33 34 35 36 36 37
Wind_Direction
280 281 281 281 282 282 282 282 279 278 276 274 271 268 267 268 268 267 265 263 260 259 260 259 259 259 260 258 257 257 256 256 257 256 258 258 256 254 256 257 257 259 259
282 282 281 280 282 283 281 281 278 277 278 277 275 272 270 269 268 266 264 262 261 260 263 261 260 262 260 258 257 258 257 256 255 256 257 256 255 253 254 256 257 258 260
283 282 281 281 281 282 282 280 279 276 276 276 276 275 271 269 267 264 263 262 264 264 265 263 261 261 260 258 257 258 257 256 255 255 256 256 255 254 253 254 256 257 259
282 282 280 280 281 281 281 280 278 276 275 276 277 276 273 268 266 263 262 262 264 265 265 264 263 262 261 260 259 259 256 255 255 255 255 255 255 255 254 255 255 256 258
282 281 281 280 280 281 281 279 277 275 274 275 276 275 273 270 267 265 264 263 264 265 265 263 262 264 263 262 262 260 258 256 255 256 256 256 257 255 255 256 254 254 257
281 281 279 280 279 279 280 278 276 275 274 274 275 275 273 269 266 266 266 263 263 263 264 263 263 264 263 262 263 259 258 258 257 256 256 256 256 256 256 256 255 255 256
280 280 278 278 279 278 278 278 276 275 275 275 274 273 271 268 267 267 267 266 265 263 263 263 263 263 262 261 260 258 257 258 257 257 257 256 256 258 257 256 255 256 257
278 278 278 276 279 280 279 278 276 275 276 276 273 273 270 268 268 267 266 266 266 264 263 262 262 261 260 259 258 258 258 256 256 256 255 255 256 256 256 256 256 257 258
278 277 277 275 276 279 280 279 277 276 275 275 275 273 270 268 268 268 267 267 266 266 265 264 261 259 258 258 258 258 257 257 256 255 255 254 255 255 255 256 256 256 256
279 277 276 275 277 278 281 280 279 277 277 275 273 272 270 268 268 268 268 267 267 266 265 263 262 260 259 259 259 258 257 258 257 256 255 253 253 254 255 256 256 257 258
278 276 275 275 276 277 279 279 280 279 278 277 275 272 269 269 270 269 269 268 267 266 265 264 262 260 259 259 259 258 257 256 256 256 255 254 254 254 255 255 256 258 259
277 275 274 273 274 275 277 279 279 280 278 277 276 274 271 270 271 271 271 270 269 266 266 265 263 261 259 258 258 257 256 255 255 255 255 256 255 254 255 255 256 258 259
276 275 274 273 274 274 276 278 280 280 279 277 275 274 272 272 272 273 271 271 269 268 267 266 264 263 260 259 258 256 254 255 255 254 256 256 257 256 256 256 258 260 261
278 277 276 274 274 275 276 276 278 280 279 278 277 275 273 273 273 273 273 271 271 269 267 266 264 262 261 261 259 257 256 256 256 256 257 257 258 258 258 259 260 260 261
277 276 275 275 276 276 275 276 276 277 277 278 276 273 274 275 275 276 275 273 271 269 267 266 264 262 261 261 260 258 256 256 256 257 258 259 258 258 259 260 260 260 260
276 276 275 275 275 276 274 275 274 274 275 276 276 275 275 274 273 273 273 273 272 269 267 266 265 264 263 262 261 259 257 256 256 256 257 258 258 258 259 260 260 259 259
277 277 277 276 276 276 275 274 274 274 274 276 276 276 276 275 273 272 272 271 270 269 268 267 266 265 264 263 262 261 260 258 257 256 256 256 258 258 259 260 260 259 259
278 279 278 278 277 276 276 274 273 273 274 277 276 276 275 274 274 273 272 271 270 269 269 268 266 266 265 264 264 262 261 260 259 258 257 256 257 258 258 259 260 260 260
277 279 278 278 278 277 275 274 273 273 275 276 276 275 274 273 273 272 271 271 271 270 269 267 265 264 265 265 265 265 263 262 260 260 259 258 258 259 258 259 259 260 260
276 277 278 278 279 278 276 275 275 275 275 276 276 275 273 273 273 272 272 272 271 271 269 267 265 264 264 265 265 265 265 264 262 260 260 259 258 258 258 258 259 260 261
277 278 278 279 279 280 279 278 278 278 277 276 275 274 274 273 272 271 271 271 272 271 270 269 266 265 265 265 266 267 266 266 265 263 261 260 259 259 260 259 259 260 260
278 278 278 278 280 280 280 280 279 279 277 276 275 274 273 271 271 272 272 271 271 271 271 270 268 266 266 267 267 268 268 267 267 266 263 261 261 261 260 260 260 260 261
279 279 280 280 281 281 281 280 279 279 279 279 278 276 274 272 272 272 272 272 272 271 270 269 268 268 268 268 268 269 269 269 268 267 266 264 263 263 263 262 262 262 261
279 280 281 282 282 283 282 281 280 279 279 279 279 276 274 273 272 273 273 273 272 272 271 270 270 269 269 269 269 269 269 269 268 267 266 265 265 264 263 263 262 262 262
281 282 282 283 284 284 283 282 280 279 279 279 279 277 275 274 274 274 274 274 274 274 273 272 272 270 270 270 269 268 269 269 269 268 267 267 267 266 265 264 263 263 262
283 283 285 286 286 285 284 283 281 279 279 279 278 277 275 275 275 276 276 275 275 275 274 275 275 274 272 271 269 268 268 268 269 269 268 268 267 267 266 265 265 264 263
Height
5801 5800 5799 5798 5797 5795 5794 5793 5793 5792 5791 5790 5789 5789 5789 5788 5788 5787 5787 5787 5787 5788 5788 5788 5789 5789 5789 5790 5790 5791 5791 5792 5792 5793 5793 5793 5794 5795 5795 5796 5796 5797 5797
5795 5794 5793 5792 5791 5790 5789 5788 5787 5786 5785 5784 5783 5783 5782 5782 5782 5781 5781 5781 5781 5782 5782 5782 5783 5783 5783 5784 5784 5785 5786 5786 5787 5787 5787 5788 5789 5789 5790 5791 5791 5792 5792
5790 5788 5787 5786 5785 5784 5783 5782 5781 5780 5779 5778 5777 5777 5776 5776 5776 5775 5775 5776 5776 5776 5776 5776 5776 5777 5777 5777 5778 5779 5780 5780 5781 5781 5782 5782 5783 5784 5784 5785 5786 5786 5787
5784 5782 5781 5780 5779 5778 5777 5776 5775 5774 5773 5772 5771 5771 5770 5770 5769 5769 5769 5770 5770 5770 5770 5770 5770 5770 5770 5771 5771 5772 5773 5774 5774 5775 5776 5776 5777 5778 5778 5779 5780 5781 5781
5777 5776 5775 5774 5773 5772 5771 5770 5768 5767 5767 5766 5765 5764 5764 5763 5763 5763 5763 5763 5763 5764 5763 5763 5763 5764 5764 5764 5765 5765 5766 5766 5767 5768 5769 5770 5771 5771 5772 5773 5774 5775 5775
5771 5770 5768 5767 5766 5765 5764 5763 5762 5761 5760 5759 5758 5757 5757 5757 5756 5756 5756 5757 5757 5757 5757 5756 5757 5757 5757 5758 5758 5758 5759 5759 5760 5761 5762 5763 5764 5765 5766 5767 5768 5768 5769
5764 5763 5762 5761 5760 5759 5757 5756 5755 5754 5753 5752 5751 5750 5750 5750 5749 5749 5749 5749 5749 5749 5749 5749 5749 5750 5750 5751 5751 5751 5752 5752 5753 5754 5755 5756 5757 5758 5759 5760 5761 5762 5763
5757 5756 5755 5754 5753 5752 5750 5749 5748 5747 5746 5745 5744 5743 5742 5742 5742 5742 5741 5741 5741 5742 5742 5742 5742 5742 5743 5743 5743 5744 5744 5745 5746 5747 5748 5749 5750 5751 5752 5753 5753 5755 5755
5749 5748 5747 5746 5746 5745 5743 5742 5741 5739 5739 5738 5736 5735 5735 5735 5734 5734 5734 5734 5734 5734 5734 5734 5734 5734 5735 5735 5736 5736 5737 5737 5738 5739 5740 5741 5742 5743 5744 5745 5746 5747 5748
5741 5740 5739 5738 5738 5737 5736 5734 5733 5732 5731 5730 5729 5728 5727 5727 5727 5726 5726 5726 5726 5725 5725 5725 5726 5726 5726 5726 5727 5728 5729 5729 5730 5731 5732 5733 5734 5735 5736 5737 5738 5739 5740
5733 5732 5731 5730 5729 5729 5728 5726 5726 5724 5723 5722 5721 5720 5720 5719 5719 5718 5718 5717 5717 5717 5717 5717 5717 5717 5718 5718 5719 5719 5720 5721 5721 5722 5723 5725 5726 5727 5728 5729 5730 5730 5731
5724 5723 5722 5721 5721 5720 5719 5718 5717 5716 5715 5714 5713 5712 5711 5711 5710 5710 5709 5709 5708 5708 5708 5708 5708 5708 5708 5709 5710 5710 5711 5712 5713 5714 5715 5716 5717 5718 5719 5720 5721 5721 5722
5714 5713 5712 5712 5711 5711 5710 5709 5708 5707 5706 5705 5704 5704 5703 5702 5702 5701 5701 5700 5700 5699 5699 5699 5699 5699 5699 5700 5700 5701 5702 5703 5704 5705 5706 5707 5708 5709 5710 5711 5712 5712 5712
5705 5704 5703 5702 5701 5701 5700 5699 5699 5698 5697 5696 5695 5694 5694 5693 5693 5692 5691 5691 5690 5690 5690 5690 5690 5690 5690 5691 5691 5692 5692 5693 5694 5696 5697 5698 5699 5699 5700 5701 5702 5703 5703
5695 5694 5693 5692 5691 5691 5690 5690 5689 5689 5687 5687 5686 5685 5684 5684 5683 5683 5682 5681 5681 5680 5680 5680 5680 5680 5681 5681 5681 5682 5683 5684 5685 5686 5687 5688 5689 5690 5691 5692 5692 5693 5693
5685 5684 5683 5683 5682 5681 5681 5680 5680 5679 5678 5677 5677 5676 5675 5674 5673 5673 5672 5672 5671 5670 5670 5670 5670 5670 5671 5671 5671 5672 5672 5673 5674 5675 5677 5678 5679 5680 5680 5681 5682 5683 5683
5676 5675 5674 5673 5673 5672 5671 5671 5670 5670 5669 5668 5667 5666 5665 5664 5663 5663 5662 5661 5661 5660 5660 5660 5660 5660 5661 5661 5661 5662 5662 5663 5664 5665 5666 5667 5669 5669 5670 5671 5671 5672 5673
5667 5666 5665 5664 5663 5662 5662 5661 5660 5659 5659 5658 5657 5656 5655 5654 5654 5653 5652 5651 5650 5650 5650 5650 5650 5650 5650 5651 5651 5652 5652 5653 5653 5654 5655 5657 5658 5659 5659 5660 5661 5662 5662
5658 5657 5656 5655 5654 5653 5652 5651 5650 5649 5648 5647 5647 5646 5645 5644 5643 5643 5642 5641 5641 5640 5640 5640 5640 5640 5641 5641 5641 5642 5642 5643 5643 5644 5644 5646 5647 5648 5649 5649 5650 5651 5651
5648 5647 5646 5646 5645 5644 5643 5641 5640 5639 5638 5637 5636 5636 5635 5634 5633 5633 5632 5632 5631 5631 5630 5630 5630 5631 5631 5631 5631 5632 5632 5632 5633 5633 5634 5635 5636 5637 5637 5638 5639 5640 5640
5638 5638 5637 5636 5635 5634 5633 5632 5631 5629 5628 5627 5626 5626 5625 5624 5623 5623 5623 5622 5622 5621 5621 5621 5621 5621 5621 5621 5621 5621 5621 5622 5622 5622 5623 5623 5624 5625 5626 5627 5627 5628 5629
5629 5628 5627 5627 5626 5625 5623 5622 5621 5619 5618 5617 5616 5616 5615 5614 5614 5613 5613 5612 5612 5612 5612 5612 5611 5611 5611 5611 5611 5611 5611 5611 5611 5611 5612 5612 5613 5613 5614 5615 5616 5616 5617
5619 5619 5618 5617 5616 5615 5613 5612 5611 5610 5609 5608 5607 5606 5605 5605 5604 5604 5603 5603 5602 5602 5602 5602 5601 5601 5601 5600 5600 5600 5600 5600 5600 5600 5600 5601 5601 5602 5602 5603 5604 5604 5605
5610 5609 5608 5607 5606 5605 5604 5602 5601 5600 5599 5598 5597 5596 5596 5595 5595 5594 5594 5593 5593 5592 5592 5592 5591 5591 5591 5590 5590 5590 5590 5589 5589 5589 5589 5589 5590 5590 5591 5591 5591 5592 5592
5601 5600 5599 5598 5596 5595 5594 5593 5592 5591 5590 5589 5588 5588 5587 5586 5586 5585 5585 5584 5584 5583 5582 5582 5581 5581 5580 5580 5579 5579 5579 5579 5578 5578 5578 5578 5578 5578 5578 5579 5579 5579 5580
5593 5591 5590 5589 5587 5586 5584 5583 5582 5581 5581 5580 5579 5579 5578 5578 5577 5576 5576 5575 5575 5574 5573 5572 5571 5571 5570 5569 5569 5569 5568 5568 5568 5567 5567 5566 5566 5566 5566 5566 5566 5567 5567